Regional Weather Roundup
Issued by NWS State College, PA

Home | Current Version | Previous Version | Text Only | Print | Product List | Glossary On
Versions: 1 2 3 4 5 6 7 8 9 10 11 12 13 14 15 16 17 18 19 20 21 22 23 24 25 26 27 28 29 30 31 32 33 34 35 36 37 38 39 40 41 42 43 44 45 46 47 48 49 50
000
ASUS41 KCTP 201803
RWRCTP

REGIONAL WEATHER ROUNDUP
NATIONAL WEATHER SERVICE STATE COLLEGE PA
200 PM EDT SAT SEP 20 2014

Note: "fair" indicates few or no clouds below 12,000 feet with no
significant weather and/or obstructions to visibility.

* = STATION THAT DOES NOT REPORT PRECIPITATION /E.G. RAIN...SNOW...ETC/
    THUNDER OR FOG.

PAZ002>004-007>009-013>016-020>023-029>032-201900-
WESTERN PENNSYLVANIA

CITY           SKY/WX    TMP DP  RH WIND       PRES   REMARKS
ERIE           PTSUNNY   76  58  53 S20G25    29.97F
MEADVILLE      CLOUDY    71  59  65 S8        30.03F
FRANKLIN*      CLOUDY    72  59  64 S15       30.07F
NEW CASTLE     NOT AVBL
BEAVER COUNTY  CLOUDY    73  61  64 SW9       30.07F
BUTLER*        MOSUNNY   75  61  60 SW9G16    30.08F
PITTSBURGH INT CLOUDY    76  60  57 SW13      30.07F
PITTSBURGH     MOSUNNY   77  58  51 S13       30.07F
INDIANA*       MOSUNNY   77  59  53 SW9G17    30.13F
LATROBE        MOSUNNY   75  63  64 SW16      30.11F
WASHINGTON CO* MOSUNNY   77  61  57 S12       30.09F
$$

PAZ004>006-010>012-017>019-024>028-033>037-041-042-045-046-049>053-201900-
CENTRAL PENNSYLVANIA

CITY           SKY/WX    TMP DP  RH WIND       PRES   REMARKS
BRADFORD       PTSUNNY   70  56  61 S12G25    30.08F
DUBOIS         PTSUNNY   72  60  66 SW9       30.09F
CLEARFIELD     PTSUNNY   73  60  63 S10       30.10F
JOHNSTOWN      PTSUNNY   73  53  49 SW13G21   30.13F
ALTOONA        SUNNY     76  58  53 SW10      30.13F
STATE COLLEGE  PTSUNNY   72  59  64 S9        30.12F
WILLIAMSPORT   MOSUNNY   73  58  59 S8G21     30.11F
SELINSGROVE    PTSUNNY   74  59  59 VRB5      30.14F
FT INDIANTOWN  PTSUNNY   76  59  56 S9        30.15F
CAPITAL CITY   SUNNY     79  57  46 S13       30.14F
HARRISBURG     MOSUNNY   79  58  48 S12       30.14F
YORK           SUNNY     78  57  48 S10       30.15F
$$

PAZ038>040-043-044-047-048-054-055-060>062-067>071-201900-
EASTERN PENNSYLVANIA

CITY           SKY/WX    TMP DP  RH WIND       PRES   REMARKS
SCRANTON       CLOUDY    71  56  58 SW10G21   30.15F
MOUNT POCONO   CLOUDY    67  56  67 S14G23    30.20F
ALLENTOWN      PTSUNNY   76  56  49 S9G16     30.18F
QUAKERTOWN*    PTCLDY    75  57  53 SW8G17    30.19F
READING        MOSUNNY   78  57  48 S12       30.16F
LANCASTER      MOSUNNY   76  57  51 S13G22    30.16F
COATESVILLE    PTCLDY    73  59  60 S7        30.19F
POTTSTOWN      PTSUNNY   74  57  55 VRB6      30.19F
BLUE BELL      SUNNY     79  59  50 S9        30.18F
DOYLESTOWN     MOSUNNY   73  57  57 S9        30.18F
WILLOW GROVE   NOT AVBL
NORTH PHILA    PTSUNNY   77  55  46 SE6       30.20F
PHILADELPHIA   MOSUNNY   76  58  53 S8        30.18F
$$


USA.gov is the U.S. government's official web portal to all federal, state and local government web resources and services.